EW5897 Weather Reports


Display with metric or nautical units.
time (UTC)temp
F
wind
direction
speed
MPH
gust
MPH
rain 1hr
in
rain 24hr
in
rain mn
in
humidity
%
barometer
mb
20260901162413 62 275 7.0 14.0 0.00 0.05 0.00 88 1011.5
20260901160422 62 252 5.0 10.0 0.00 0.05 0.00 89 1011.5
20260901154416 60 252 5.0 9.0 0.00 0.05 0.00 92 1011.5
20260901152913 59 242 6.0 9.0 0.00 0.05 0.00 93 1011.4
20260901151412 58 255 6.0 11.0 0.00 0.05 0.00 94 1011.5
20260901145908 57 259 6.0 10.0 0.00 0.05 0.00 95 1011.4
20260901143921 56 240 6.0 10.0 0.00 0.05 0.00 96 1011.3
20260901141928 55 282 4.0 11.0 0.00 0.05 0.00 97 1011.2
20260901140421 54 264 6.0 10.0 0.00 0.05 0.00 96 1011.0
20260901134424 53 284 5.0 10.0 0.00 0.05 0.00 97 1010.8
20260901132433 52 265 7.0 11.0 0.00 0.05 0.00 96 1010.9
20260901130424 51 255 4.0 8.0 0.00 0.05 0.00 97 1010.8
20260901123931 50 236 6.0 10.0 0.00 0.06 0.00 96 1010.5
20260901122424 50 263 7.0 11.0 0.00 0.06 0.00 97 1010.3
20260901120912 50 267 4.0 9.0 0.00 0.06 0.00 96 1010.1
20260901114926 50 265 5.0 9.0 0.00 0.06 0.00 96 1010.0
20260901113415 50 232 3.0 5.0 0.00 0.06 0.00 96 1009.8
20260901110940 50 223 5.0 7.0 0.00 0.06 0.00 96 1009.6
20260901104916 50 234 3.0 5.0 0.00 0.06 0.00 96 1009.3
20260901102919 52 223 5.0 7.0 0.00 0.06 0.00 95 1009.3
20260901100934 52 227 3.0 7.0 0.00 0.06 0.00 96 1008.9
20260901095417 52 267 4.0 8.0 0.00 0.06 0.00 95 1008.8
20260901093430 53 259 5.0 7.0 0.00 0.06 0.00 95 1008.6
20260901091424 53 255 5.0 8.0 0.00 0.06 0.00 95 1008.3
20260901085920 53 250 4.0 9.0 0.00 0.06 0.00 95 1008.2
20260901084418 54 277 5.0 9.0 0.00 0.06 0.00 95 1008.2
20260901082430 54 248 6.0 10.0 0.00 0.06 0.00 95 1008.3
20260901080427 54 258 6.0 9.0 0.00 0.06 0.00 95 1008.3
20260901073912 55 263 6.0 11.0 0.00 0.06 0.00 95 1008.2
20260901071926 55 256 8.0 11.0 0.00 0.06 0.00 95 1007.9
20260901065927 55 242 7.0 12.0 0.00 0.06 0.00 94 1007.9
20260901063921 56 263 5.0 11.0 0.00 0.06 0.00 94 1007.8
20260901062418 56 249 6.0 12.0 0.00 0.06 0.00 94 1007.7
20260901060421 56 250 8.0 12.0 0.00 0.06 0.00 94 1007.3
20260901054911 56 267 8.0 13.0 0.00 0.07 0.06 94 1007.1
20260901052937 56 239 7.0 14.0 0.00 0.07 0.06 95 1006.9
20260901051428 57 257 6.0 12.0 0.00 0.07 0.06 95 1006.8
20260901045914 57 228 7.0 12.0 0.00 0.07 0.06 95 1006.6
20260901043921 57 261 5.0 10.0 0.00 0.07 0.06 95 1006.6
20260901041926 57 273 6.0 12.0 0.00 0.07 0.06 95 1006.6
20260901035918 57 270 6.0 12.0 0.00 0.07 0.06 95 1006.5
20260901033919 56 250 5.0 10.0 0.00 0.08 0.06 95 1006.2
20260901031926 57 267 5.0 11.0 0.00 0.08 0.06 94 1006.1
20260901025924 57 261 8.0 13.0 0.00 0.08 0.06 93 1005.8
20260901024415 58 299 9.0 16.0 0.00 0.08 0.06 93 1005.7
20260901022431 58 276 13.0 19.0 0.00 0.08 0.06 94 1005.2
20260901020926 58 256 12.0 19.0 0.01 0.08 0.06 95 1004.9
20260901014937 58 263 11.0 18.0 0.01 0.08 0.06 96 1004.5
20260901013410 57 265 8.0 12.0 0.01 0.08 0.06 96 1004.4
20260901011430 57 275 7.0 12.0 0.00 0.07 0.05 96 1004.3
20260901005424 57 303 10.0 17.0 0.00 0.07 0.05 95 1004.0
20260901003916 57 252 10.0 16.0 0.00 0.07 0.05 95 1003.7
20260901001935 57 263 11.0 18.0 0.01 0.07 0.05 95 1003.3
20260901000428 57 266 14.0 23.0 0.01 0.07 0.05 94 1002.9
20260831234909 57 275 10.0 20.0 0.01 0.07 0.05 95 1002.7
20260831232932 56 275 8.0 14.0 0.01 0.06 0.04 96 1002.3
20260831231421 55 269 5.0 9.0 0.02 0.06 0.04 95 1002.1
20260831225436 55 233 4.0 9.0 0.02 0.09 0.04 95 1002.1
20260831223426 55 259 5.0 7.0 0.01 0.08 0.03 94 1001.9
20260831221431 55 238 6.0 12.0 0.00 0.07 0.02 93 1001.5
20260831214423 57 240 10.0 14.0 0.00 0.07 0.02 87 1001.1
20260831212917 58 252 9.0 16.0 0.00 0.07 0.02 82 1000.8
20260831210925 59 217 10.0 14.0 0.00 0.07 0.02 80 1000.5
20260831204920 60 263 11.0 18.0 0.00 0.48 0.02 77 1000.1
20260831202919 61 260 12.0 16.0 0.00 0.48 0.02 74 999.5
20260831201415 61 236 10.0 19.0 0.00 0.48 0.02 73 999.1
20260831195421 61 260 10.0 16.0 0.01 0.74 0.02 74 998.8
20260831193917 62 265 10.0 15.0 0.01 0.74 0.02 72 998.2
20260831191926 63 283 8.0 14.0 0.01 0.74 0.02 70 997.8
20260831185923 62 223 7.0 13.0 0.00 0.73 0.01 70 997.4
20260831184419 61 250 6.0 11.0 0.00 0.73 0.01 74 997.2
20260831182915 60 253 4.0 11.0 0.00 0.73 0.01 73 996.9
20260831180923 59 252 4.0 9.0 0.00 0.73 0.01 76 996.6
20260831175423 59 255 3.0 8.0 0.00 0.73 0.01 77 996.3
20260831173430 59 269 3.0 7.0 0.00 0.73 0.01 77 996.1
20260831171427 58 230 1.0 6.0 0.00 0.73 0.01 78 996.0
20260831165425 58 185 1.0 6.0 0.00 0.74 0.01 78 995.8
20260831163425 57 167 3.0 8.0 0.00 0.74 0.01 79 995.6